CAPE
10 6 0 0 0 35 376 103 2 349 41 17 189 436 835 1136 1356 1403 1318 1182 664 944 479 669 284 590 685 727 1124 1109 1159 553 104 1 34 997 891 1097 1294 1511 1665 1810 1854 1925 2105 2185 2668 2802 2786 2509 2538 2942 2834 2793 2889 2619 2654 2597 2691 2766 2781 2807 2958 2975 2950 2928 2868 2779 2720 2627 2477 2319 2211 2252 2680 2435 2344 2457 2560 2607 2552 2549 2648 2429 2234 2695 2601 2705 2865 2803 2813 2897 2893 2929 3017 2985 2921
1 0 0 0 4 277 280 729 2 160 65 98 175 545 1145 1056 1311 1385 990 1239 1025 884 543 166 80 178 521 803 887 856 735 1056 1144 807 609 801 1272 1408 1352 1588 1623 1759 1851 2052 2175 2295 2578 2799 2820 2662 2602 2610 2689 2733 2740 2730 2649 2521 2573 2647 2614 2667 2823 2765 2810 2752 2834 2543 2647 2071 2657 2323 2216 2502 2461 2360 2446 2492 2450 2472 2384 2118 2441 2406 2453 2451 2327 2608 2684 2868 2922 2858 2932 2909 2954 3003 2847
2 0 0 0 34 241 1537 588 28 286 160 132 593 406 1549 735 741 854 1088 1597 1003 436 159 328 313 407 528 586 572 557 456 666 680 802 784 1077 1026 935 1338 1356 1562 1768 1960 2135 2215 2281 2397 2664 2834 2740 2705 2701 2709 2729 2776 2669 2646 2672 2520 2523 2576 2575 2716 2672 2627 2638 2348 2262 2208 2274 2671 2496 2652 2498 2462 2423 2486 2420 2144 2032 2044 2433 2373 2698 2655 2475 2478 2209 2472 2532 2736 2766 2762 2805 2826 2740 2723
1 0 0 0 615 218 190 313 136 104 186 330 417 1088 999 850 721 557 1425 1451 609 705 307 342 841 337 598 524 532 347 383 443 570 748 922 1006 809 913 1085 1338 1844 1770 1854 1964 2056 2071 2120 2420 2814 2967 2779 2587 2859 2842 2692 2737 2656 2645 2736 2691 2657 2612 2646 2614 2638 2736 2494 2329 2370 2682 2764 2710 2609 2514 2787 2595 2506 2142 2432 2518 2463 2238 2500 2384 2449 2449 2461 2477 2409 2572 2444 2573 2636 2775 2669 2679 2728
261 965 585 4 241 302 156 240 213 361 156 563 478 1395 996 1775 1158 1625 1200 1225 406 290 315 134 287 348 339 408 378 407 544 580 774 656 685 706 650 909 962 1166 1331 1570 1625 1761 1874 1935 2251 2866 2973 2764 2614 2856 2952 2831 2797 2822 2794 2792 2779 2675 2612 2717 2627 2620 2674 2598 2578 2372 2599 2663 2527 2504 2324 2484 2546 2582 2420 2403 2428 2400 2730 2633 2380 2227 2349 2392 2580 2648 2558 2610 2732 2873 2766 2698 2592 2657 2727
636 912 682 730 272 758 348 94 185 177 730 1257 971 1374 1273 2130 909 1765 909 970 487 744 247 279 381 347 526 618 504 520 540 708 647 784 708 534 708 719 720 671 1021 1316 1506 1845 2014 2084 2451 2871 2732 2654 2625 2737 2867 2788 2874 2896 2751 2709 2811 2654 2545 2697 2528 2550 2506 2597 2534 2279 2617 2638 2475 2319 2424 2571 2603 2683 2825 2260 2084 2308 2489 2428 2352 2381 2481 2596 2774 2640 2518 2123 2506 2594 2563 2580 2633 2570 2755
606 701 222 300 564 396 166 236 286 227 915 903 1259 1371 1618 1930 1453 1553 749 460 510 568 408 294 206 177 279 487 329 364 553 610 636 595 552 510 556 426 389 698 1082 1368 1747 1960 2079 2324 2648 2758 2728 2756 2665 2635 2717 2770 2895 2897 2770 2731 2772 2652 2599 2608 2509 2472 2418 2489 2436 2512 2464 2556 2481 2448 2637 2689 2568 2558 2699 2704 2343 2448 2349 2424 2348 2438 2584 2473 2620 2639 2505 2490 2506 2617 2660 2580 2552 2568 2738
877 467 980 298 350 301 225 277 434 108 1027 1243 1102 879 945 1885 1922 1129 626 725 602 1070 706 714 459 433 326 479 602 551 606 810 598 567 577 498 370 404 616 870 1222 1612 1868 1971 2210 2488 2888 2734 2706 2687 2666 2616 2567 2758 2777 2797 2748 2756 2769 2576 2629 2472 2465 2456 2637 2706 2541 2516 2481 2529 2572 2569 2439 2524 2568 2471 2716 2734 2098 2150 2150 2472 2394 2554 2569 2526 2596 2546 2480 2525 2702 2756 2732 2713 2671 2689 2836
496 318 806 432 311 240 264 226 438 1545 1058 1064 841 895 1221 1078 1200 1398 522 711 420 644 1435 286 180 172 161 454 648 684 720 711 582 535 472 383 416 469 743 1140 1452 1690 1848 2026 2358 2687 2668 2666 2548 2639 2729 2717 2773 2858 2905 2752 2635 2568 2566 2601 2421 2157 2433 2181 2332 2627 2553 2585 2561 2649 2664 2572 2530 2437 2532 2623 2726 2637 2545 2132 2031 2309 2200 2370 2561 2363 2444 2545 2561 2465 2415 2638 2762 2719 2853 2884 2782
443 245 435 242 463 335 355 632 721 1265 673 918 528 762 1043 1114 691 1036 1022 358 644 320 613 244 174 81 295 405 566 688 633 722 565 456 397 378 366 584 900 1152 1562 1727 1969 2190 2469 2482 2424 2676 2490 2613 2625 2642 2857 2838 2796 2525 2552 2532 2499 2356 2120 2135 2380 2416 2308 2338 2498 2568 2624 2484 2530 2339 2404 2444 2550 2744 2741 2638 2651 2337 2204 2265 2292 2396 2294 2482 2362 2516 2580 2622 2632 2661 2569 2551 2547 2669 2818
674 1012 857 375 372 318 528 511 976 803 1190 1471 953 1287 1140 1414 608 1202 836 1103 602 362 207 206 136 213 378 431 662 702 570 675 598 424 389 382 425 582 819 1014 1639 1886 1972 2155 2261 2313 2518 2529 2829 2596 2548 2771 2829 2783 2593 2491 2497 2467 2459 2344 2315 2042 2130 2328 2224 2515 2492 2471 2560 2496 2270 2355 2515 2530 2539 2738 2745 2677 2574 2486 2481 2307 2290 2483 2540 2461 2469 2490 2720 2782 2813 2577 2532 2426 2521 2793 2796
456 1045 820 410 177 182 569 700 863 1345 1485 1750 1066 965 1142 1686 1221 816 970 771 427 368 324 352 405 366 360 459 649 746 535 467 463 411 370 310 351 553 916 1274 1620 1729 1789 1998 2199 2297 2370 2581 2567 2648 2776 2828 2726 2550 2576 2518 2523 2550 2510 2444 2427 2389 2152 2247 2245 2339 2290 2663 2585 2405 2262 2359 2682 2546 2428 2653 2557 2476 2451 2363 2352 2355 2284 2348 2360 2358 2267 2381 2537 2614 2479 2433 2426 2470 2614 2842 2775
321 719 784 329 54 773 868 946 1267 1336 2021 1348 1500 1354 1778 1182 1122 1355 1080 792 420 353 662 482 326 333 320 396 492 596 538 470 368 298 248 200 300 570 1160 1409 1557 1608 1831 2137 2149 2232 2322 2312 2424 2606 2706 2756 2584 2443 2495 2571 2509 2612 2603 2599 2575 2489 2388 2395 2597 2721 2717 2661 2652 2592 2540 2534 2499 2468 2462 2460 2627 2421 2462 2366 2395 2658 2526 2304 2253 2264 2248 2359 2511 2615 2636 2459 2441 2466 2729 2841 2746
246 791 895 476 1054 260 860 1074 1566 1480 1282 1240 1766 1465 1185 1054 996 830 814 692 892 1249 405 329 453 343 311 258 197 303 315 316 286 223 188 164 379 834 1022 1144 1389 1612 1840 1932 2098 2206 2183 2218 2215 2296 2453 2363 2342 2375 2521 2435 2505 2528 2448 2581 2565 2339 2309 2394 2434 2625 2757 2715 2694 2500 2553 2555 2628 2575 2465 2430 2523 2566 2455 2482 2464 2614 2454 2371 2417 2304 2211 2385 2448 2478 2364 2350 2362 2638 2722 2815 2656
160 641 743 657 548 1207 1307 1059 767 1257 512 1137 1209 1656 1396 1836 2166 1302 1435 516 565 946 362 297 372 347 233 279 207 224 179 166 184 126 116 210 440 724 938 1160 1525 1628 1707 1962 2066 2095 2172 2158 2152 2199 2276 2135 2018 1997 2228 2479 2465 2512 2659 2600 2496 2381 2530 2507 2615 2612 2544 2474 2545 2484 2477 2720 2702 2687 2713 2130 2646 2650 2468 2271 2282 2680 2388 2211 2243 2302 2439 2560 2554 2460 2382 2413 2547 2680 2709 2679 2602
718 809 623 643 647 839 1539 545 731 848 701 1094 1676 1807 1424 1549 1461 1290 862 854 567 412 381 478 411 475 233 271 236 164 98 87 66 58 70 220 253 562 1089 1335 1531 1699 1842 1841 1930 2039 2065 2099 2130 2051 2022 2035 1910 1960 2146 2266 2465 2726 2735 2656 2519 2559 2492 2512 2566 2417 2381 2620 2598 2576 2527 2595 2344 2174 2280 2605 2776 2760 2434 2368 2316 2289 2272 2062 2285 2511 2589 2666 2652 2560 2500 2538 2596 2641 2895 2773 2541
990 883 634 504 528 751 827 1644 766 705 575 1096 1326 1145 1212 1112 928 922 874 1048 691 554 1108 558 1469 353 310 232 158 70 62 81 60 23 33 41 160 773 1074 1276 1502 1631 1718 1783 1837 1965 2038 2102 2064 2002 2042 2002 1951 2034 2020 2114 2544 2600 2541 2529 2521 2538 2476 2415 2319 2291 2444 2827 2624 2676 2459 2584 2526 2488 2638 2584 2688 2765 2554 2547 2412 2396 2306 2200 2463 2676 2680 2713 2583 2528 2533 2588 2606 2543 2764 2814 2660
1146 845 707 722 859 1121 1741 632 981 1188 892 1074 1453 1406 1328 1304 889 1102 617 622 538 600 887 687 653 318 260 185 56 19 10 30 7 3 12 10 140 549 866 1190 1398 1497 1611 1507 1811 1959 2041 2074 2023 2030 2036 1964 2016 2153 2313 2473 2606 2463 2103 2301 2431 2394 2305 2186 2325 2618 2491 2715 2464 2599 2538 2724 2435 2356 2472 2587 2946 2859 2597 2456 2034 2120 2124 2319 2567 2673 2666 2736 2668 2529 2488 2395 2418 2467 2333 2180 2743
729 792 769 726 1513 1104 1150 738 885 806 888 1284 1177 1687 1550 961 876 628 571 568 756 966 617 817 660 274 235 115 20 0 2 2 0 0 12 27 65 450 923 1183 1325 1423 1521 1572 1670 1918 2060 2031 1998 2011 2000 1995 2025 2118 2307 2502 2371 2307 2263 2196 2416 2525 2408 2884 2476 2637 2501 2536 2741 3118 3110 2274 2380 2543 2725 2891 3068 2714 2678 2096 2082 2320 2222 2312 2314 2567 2802 2892 2916 2712 2645 2640 2686 2706 2528 3124 2170
91 399 679 832 650 539 914 921 1220 875 835 1370 1475 1422 1346 1466 836 1216 663 707 792 724 444 525 327 254 188 66 6 0 2 0 0 1 11 36 93 405 772 1098 1274 1383 1513 1633 1758 1899 2032 1952 1912 1963 1949 1981 2043 2126 2300 2340 2362 2332 2248 2205 2172 2224 2278 2416 2208 2345 2504 2490 2472 2549 2662 2652 2343 2364 2660 2668 2299 2611 2086 2120 2278 2274 2227 2406 2378 2704 2813 2943 2916 2887 2722 2545 2696 2752 2228 2409 2313
156 41 258 614 941 763 940 823 1314 1160 1118 1105 1326 1257 1149 1070 1167 1339 1242 811 760 713 606 703 319 253 162 42 5 0 4 2 2 0 10 40 103 268 573 918 1220 1405 1538 1608 1813 1845 1853 1826 1809 1774 1862 1880 1971 2176 2231 2334 2342 2243 2131 2126 2198 2179 2154 2027 2107 2486 2610 2298 2064 2198 2465 2673 2470 2584 2451 2321 2368 2358 2235 2168 2410 2386 2246 2186 2717 2396 2486 2671 2654 2327 2501 2678 2313 2435 1967 1847 1928
147 96 126 500 1169 431 1015 1802 1108 1495 1073 1458 1070 865 702 773 482 680 1068 939 826 584 639 679 382 286 153 39 2 7 8 4 1 0 6 32 103 244 376 672 1092 1370 1389 1526 1765 1822 1802 1744 1700 1689 1661 1652 1824 1988 2226 2530 2247 2010 1950 2118 2218 2256 2302 2187 2331 2520 2495 2233 2133 1861 2282 2457 2414 2422 2334 2290 2286 2141 1887 2599 2658 2662 2341 2524 2788 2299 2337 2252 2227 2186 2286 2311 2276 2302 2110 1970 2386
0 85 133 274 990 662 673 1356 1665 1075 920 977 1193 1109 1194 1049 951 804 653 1182 1372 675 618 414 386 303 191 30 6 36 32 20 8 5 11 30 60 216 377 556 861 1182 1439 1522 1529 1680 1789 1929 1733 1564 1660 1604 1633 1863 2127 2219 1983 1876 1871 2030 2187 2326 2390 2233 2249 2507 2492 2326 2265 1973 2242 2267 2219 2350 2325 2215 2302 2287 2602 2512 2450 2362 2368 2147 2317 1903 1925 1982 2082 1999 2253 2537 2288 2325 1971 2152 1946
0 7 173 281 1207 865 1034 1157 900 1834 1588 1960 1878 1550 1152 978 1281 855 782 710 920 1331 1168 844 454 331 203 58 31 82 86 66 31 22 24 41 52 236 428 643 906 1205 1454 1543 1594 1503 1764 1876 1748 1599 1697 1504 1615 1838 1906 1816 1850 1873 1925 2592 2172 2214 2356 2384 2350 2615 2679 2680 2165 2146 1948 1754 1946 2067 2149 1954 2073 2513 2269 2202 2126 2255 2133 2029 2461 2096 1815 1906 2154 2190 2020 2158 2280 2334 2289 2160 2014
0 11 362 585 843 1095 887 703 1278 1059 1516 2217 1518 1485 1502 841 997 654 980 893 565 1114 779 1267 415 340 229 113 106 146 162 124 108 73 56 29 38 211 389 623 916 1090 1300 1562 1559 1560 1621 1851 1763 1828 1925 1567 1639 1786 1750 1797 1926 1800 1833 2042 1741 2738 2074 2394 2499 2472 2717 2560 2126 2505 1779 1424 1598 1774 1979 2109 2120 2171 2191 1857 2025 2009 1968 1809 1782 1869 1714 1539 1827 1957 2110 1973 2262 2454 2298 2272 2010
0 0 142 383 869 1146 876 1094 1230 1384 2243 1638 1530 1524 1798 641 830 688 1930 471 650 710 649 496 477 367 259 162 168 204 238 262 224 132 82 52 48 130 290 570 837 1126 1156 1288 1482 1474 1584 1740 1792 1910 2045 1457 1558 1660 1670 1774 1737 1644 1619 1807 1757 2608 2036 2274 2234 2353 2450 2187 1618 2009 1783 1522 1745 1794 1871 2076 1883 1869 1850 1169 1413 1437 1850 1792 1406 1450 1778 1437 1572 1698 2029 2018 1836 2451 2388 2597 2373
0 1 6 920 984 631 869 1063 1053 1254 1474 1523 1536 1494 1426 1289 978 709 1018 1133 603 850 549 516 601 397 299 221 216 243 300 372 329 183 161 82 48 36 153 458 664 999 1068 1051 1252 1392 1396 1463 1671 1949 1968 1777 1352 1474 1510 1615 1459 1211 1379 1651 1799 1979 1814 2116 1923 1918 2138 1345 1330 1204 1095 1642 1424 1447 1789 1788 1600 1241 1107 890 962 1124 1231 1538 1433 1563 1552 1686 1859 1959 2307 2572 2071 2105 2635 2519 2812
0 0 0 0 850 798 850 894 1236 1272 1156 1327 2014 1361 1148 1131 852 918 1072 1208 676 754 693 560 493 414 326 248 208 251 375 381 269 256 208 122 42 5 54 278 467 742 839 873 1012 1197 1240 1340 1705 1843 1841 1633 1476 1364 1819 1495 1324 1374 1195 1260 1657 1802 1490 1526 1476 1460 1225 1066 1114 931 1214 1591 1573 1367 1674 1379 1119 1070 882 1112 926 881 1010 1124 1498 1460 1360 1188 1405 1711 1963 2432 2599 2407 2118 2142 2116
0 0 0 0 52 674 756 1000 837 996 1101 1624 1508 985 824 825 614 882 1228 908 1095 786 596 541 484 417 325 238 160 264 276 265 135 130 178 99 44 2 8 87 326 622 730 749 846 1092 1234 1345 1414 1664 1796 1609 1354 1608 1868 1692 1566 1630 1259 916 1143 1629 1273 1114 1687 1658 1264 1501 1276 864 905 1824 1577 1034 1324 1597 1746 1080 1115 1150 1043 1248 1235 1371 1356 1312 1644 1604 1656 1644 1498 2313 2365 1710 1859 1586 2176
0 0 0 0 0 0 533 915 842 959 799 1169 816 798 519 888 768 1127 944 892 1008 994 554 586 450 385 233 190 113 143 172 176 84 91 101 28 31 0 0 19 300 328 592 611 675 896 986 1315 1559 1577 1788 1658 1514 1550 1716 1619 1454 1570 1321 876 1735 1366 1145 1564 1901 2072 1612 1568 1264 1177 1195 1718 1099 1210 1253 1489 1264 1184 1220 1038 948 1132 1326 1256 1242 1252 1366 1402 1626 1421 1562 2275 2320 1820 1241 1692 1795
0 0 0 0 0 0 0 1252 1067 962 920 984 712 649 411 734 764 893 1086 873 1126 783 713 513 435 364 265 164 77 61 89 104 40 32 55 23 16 0 0 20 111 130 259 291 470 602 693 1329 1508 1564 1832 1676 1696 1323 1343 1284 1118 1328 1237 1417 1271 1162 1620 1628 2067 2070 1846 1857 1586 1517 1847 1560 1282 1623 1988 1779 1302 1026 1175 1194 1316 1332 1333 1375 1269 1237 1436 1254 1336 1259 1764 2130 1993 1317 1516 1958 2004
0 0 0 0 1 4 0 372 463 1045 890 746 452 439 486 731 950 973 990 1191 1038 764 709 544 490 419 361 241 124 56 66 16 1 1 4 30 5 0 0 3 38 50 145 189 173 268 427 1014 1242 1304 1490 1428 1324 1202 1196 1326 1166 1027 1248 1953 1191 1760 1324 1725 2065 2062 2389 2153 2282 2364 2050 1606 1484 1959 2703 2305 1596 1175 1472 1588 1506 1654 1454 1103 1157 1394 1252 1505 1549 1738 2251 1913 1322 1521 1897 1569 2357
0 0 0 1 13 16 2 0 658 860 856 611 308 533 1131 704 691 984 835 1334 1083 875 464 511 546 551 454 364 283 136 70 0 0 0 0 17 4 3 0 0 7 16 42 49 59 66 339 723 956 1151 1149 1122 1052 1214 1313 1220 1120 1220 1566 1388 1301 1733 1223 1780 1904 2010 2299 2624 3176 3019 2676 2530 1853 1997 2168 1880 1531 1382 1484 1368 1564 1720 1590 1534 1229 1349 1582 1866 2239 2573 2800 2332 2090 1510 1570 1468 1684
0 0 0 0 8 18 16 1 3 792 966 659 336 389 869 503 613 952 843 551 728 553 498 472 420 497 466 447 405 257 150 6 5 0 7 13 1 0 0 3 0 3 2 2 17 4 474 613 1093 1210 1073 1051 872 1197 1001 1228 1011 1570 1284 1179 1444 1807 883 1480 1646 1930 2229 2535 2936 2998 3252 3299 2716 2686 2797 2826 2530 2380 2085 1789 1984 1666 1135 1187 1483 1779 1841 1969 2661 2863 2753 2607 2054 1755 796 1010 1288
0 0 0 0 0 10 25 20 17 464 693 840 371 289 441 578 636 726 784 697 791 564 455 431 479 464 427 539 495 344 224 64 31 0 25 25 10 4 0 0 0 0 1 0 1 3 253 627 1172 1210 1085 1061 973 1390 845 1458 1390 1334 1110 1006 1053 1916 977 856 1222 1734 2142 2471 2851 3116 3274 3342 3560 3095 3272 2862 2606 3081 2486 2495 2009 1763 1735 1635 1367 1697 2321 3035 2640 2672 2808 3138 3119 2503 1131 744 927
0 0 0 0 0 3 22 29 65 390 321 336 296 334 418 476 628 613 751 734 881 936 460 440 504 622 430 532 560 382 336 227 65 0 7 52 17 33 0 0 0 0 0 0 0 23 130 719 1094 1073 940 916 1154 1156 1143 1241 1255 1283 983 813 1134 1726 906 1629 1426 1901 2274 2534 2924 3252 3419 3457 3868 3547 2678 2267 2292 2242 2756 3073 2869 2176 1843 1962 2016 2755 2663 2466 2618 2197 1912 2630 2732 3518 2578 876 879
0 0 0 0 0 0 4 15 459 299 339 405 476 446 246 431 564 802 763 871 846 884 592 540 422 545 584 493 563 442 403 292 140 6 2 25 26 38 0 0 0 0 0 0 0 21 39 737 998 985 836 840 1374 956 1198 941 1087 1087 979 775 1113 1154 931 836 1463 2112 2377 2530 2851 3150 3281 3284 3872 3506 2882 2563 2596 3616 3202 3238 3184 3372 3536 3001 2193 2612 2866 2955 3162 2924 3507 4027 3806 2186 1524 597 1268
0 0 0 0 0 0 0 3 378 227 318 375 412 320 355 350 360 751 657 627 895 895 767 649 598 598 626 580 447 473 465 364 239 22 0 11 19 16 0 0 0 0 0 0 0 6 42 714 887 888 888 804 1341 1011 1250 972 1071 1000 860 669 887 770 1509 904 790 1834 2392 2515 2567 3120 3316 3529 3836 3875 3263 3019 3410 3152 3102 2949 3185 3550 3694 3732 4099 3564 3079 3754 3600 3596 3531 3257 3193 2797 984 766 816
0 0 0 0 0 0 0 0 274 316 338 445 426 336 415 449 777 784 767 665 723 888 818 782 832 719 707 878 453 404 466 443 306 109 16 41 28 19 0 0 0 0 0 0 0 0 128 579 599 653 1040 1031 1384 1282 1317 1051 1094 926 612 492 385 489 972 738 771 1599 2470 2534 2516 2932 3212 3422 3590 3974 3633 3796 3071 2635 2590 2704 2906 3031 3276 3785 3798 3232 3697 3176 3272 2978 3229 2871 2383 2817 1353 670 762
0 0 0 0 0 0 0 0 70 372 470 400 371 347 512 540 572 917 807 696 771 833 774 695 1136 1004 968 887 598 997 460 480 360 249 86 95 39 49 2 0 0 0 0 0 0 0 149 585 565 690 1197 1142 1468 1533 1484 1123 1019 627 346 151 8 164 374 584 582 1508 2324 2376 2250 2700 3067 3090 3452 3647 3666 3779 3120 2798 2800 2705 2561 2437 2778 3510 3952 3414 3610 3295 3226 2805 2930 3862 3167 1237 412 376 1343
0 0 0 0 0 0 0 0 0 110 242 397 326 372 349 262 539 546 796 820 730 793 884 849 1183 1040 975 1263 1112 523 517 492 459 339 171 146 94 55 15 0 0 0 0 0 0 0 89 490 582 784 1365 1285 1470 1794 1468 1075 954 598 445 108 31 22 427 282 438 1411 1978 2243 2208 2652 2958 2931 3169 3273 3461 3370 3354 2913 2782 2584 2384 2393 2543 3307 3837 3787 3859 3480 2514 2700 3379 3366 2888 2864 566 479 877
0 0 0 0 0 0 0 0 0 0 69 228 333 549 342 324 492 483 542 666 755 634 795 991 1190 1020 1126 1130 793 1228 566 511 753 358 195 166 138 48 33 3 10 0 0 0 0 0 87 482 573 804 1460 1451 1395 1691 1300 742 727 325 284 492 236 14 52 66 162 390 1602 1993 1987 2262 2786 2819 2757 2910 2885 2956 3316 2877 2771 2591 2583 2744 2854 3034 3356 3785 3699 3377 2983 2654 3195 2678 2752 2939 962 578 655
0 0 0 0 0 0 0 0 0 0 0 332 349 255 417 309 448 466 569 626 627 630 519 1216 1268 1116 1000 781 875 846 1025 528 441 372 342 187 150 122 100 16 25 1 0 0 0 12 15 526 560 875 1327 1493 1345 1555 1135 776 609 336 184 400 34 13 0 54 47 0 1302 1648 1551 1929 2423 2524 2520 2980 2623 2963 3156 2934 2630 2621 2825 2792 2808 2966 3494 3461 3290 3209 3398 2854 2842 2738 2627 3635 3051 838 715
0 0 0 0 0 0 0 0 0 0 0 0 10 189 258 245 368 419 382 355 335 398 430 1500 1501 1218 865 706 787 649 772 852 445 440 403 200 175 220 174 61 40 34 3 10 0 43 0 722 537 891 1062 1348 1424 1269 1180 721 609 422 323 380 89 249 2 168 144 12 571 1294 1406 1641 1960 2461 2212 2663 2434 2885 3106 3072 2660 2721 2925 2880 2960 3210 3468 3319 3071 2949 2865 2550 2784 2224 3268 4386 4088 1685 848
0 0 0 0 0 0 0 0 0 0 0 0 0 1 30 167 342 288 276 281 244 346 931 1499 1472 1188 866 706 800 678 616 556 419 318 467 357 214 260 231 142 68 123 72 21 5 47 0 859 574 916 1022 1008 1466 983 1057 858 819 341 536 269 297 306 489 319 220 856 168 83 524 1441 1514 2226 2054 2334 2346 2733 3089 3153 3454 2938 2874 2867 2950 3248 3762 3283 3214 2980 2598 2518 2209 2418 2926 3066 2941 2676 2386
0 0 0 0 0 0 0 0 0 0 0 0 0 0 3 47 218 251 177 183 462 494 1215 1331 1334 1057 773 732 687 608 480 530 504 396 546 471 274 310 327 234 115 212 219 78 135 200 101 828 731 825 1263 972 1374 982 915 898 801 510 374 280 201 209 1219 651 282 752 678 189 90 1421 1500 1945 2015 1958 2821 2533 2981 2835 3190 3344 3211 2903 2775 3230 3770 3300 3143 2811 2651 3024 2440 3424 3710 4270 4172 2858 2482
0 0 0 0 0 0 0 0 0 0 0 0 0 0 0 1 112 256 173 241 489 521 762 1231 1289 982 836 779 686 626 566 567 681 689 692 484 330 384 387 364 220 216 280 211 344 352 431 877 945 716 1310 1196 1482 1088 819 833 670 473 239 288 243 150 966 624 423 449 783 605 356 1224 1470 1820 1910 1850 2608 2515 2821 2998 2820 3270 3126 3196 2959 3214 3486 3020 2943 2372 2555 3348 3874 3443 2970 2937 3073 3161 3916
0 0 0 0 0 0 0 0 0 0 0 0 0 0 0 0 0 126 229 238 465 489 724 1076 1143 914 925 795 691 667 628 676 777 790 815 555 466 422 404 414 428 376 351 385 577 492 927 799 1063 939 1022 1459 1542 1222 838 727 638 522 224 234 346 127 516 673 319 354 336 497 724 356 1701 1891 1972 1839 2182 2685 2702 3021 2859 3033 2973 2975 2815 2912 2802 2504 2691 2057 2760 3464 3597 3398 3088 2864 3382 3589 3006
0 0 0 0 0 0 0 0 0 0 0 0 0 0 0 0 0 0 300 194 308 467 706 1072 1062 874 970 875 742 677 623 683 853 765 790 627 578 527 458 420 478 471 450 550 732 694 1158 973 1090 1143 1043 1421 1656 1361 915 708 598 607 286 211 369 216 288 686 326 332 173 375 345 787 1207 1875 2080 1961 2055 2224 2740 2632 3056 2852 2761 2806 2594 2944 2374 1952 2010 2926 2790 3203 3323 3678 3549 3558 3607 3077 2877
0 0 0 0 0 0 0 0 0 0 0 0 0 0 0 0 0 0 0 4 147 352 600 909 1087 969 936 848 740 619 555 563 650 688 822 793 646 538 485 458 506 539 524 455 877 962 1310 1327 1142 1256 1207 1257 1772 1400 1057 724 596 665 406 232 281 500 249 347 317 533 197 297 275 948 600 1664 2126 2024 2229 2252 2236 2520 2932 2894 2682 2937 2585 2278 2755 1872 1982 3224 3159 2951 3138 2960 3206 3304 3313 3089 2952
0 0 0 0 0 0 0 0 0 0 0 0 0 0 0 0 0 0 7 0 296 506 574 815 1032 994 877 805 737 561 428 466 783 745 1011 900 797 635 534 519 510 589 575 562 843 1178 1359 1608 1441 1302 1409 1254 1680 1496 1113 816 656 664 616 311 258 461 318 304 291 842 339 479 416 688 1101 767 1739 2027 2107 2496 2147 2274 2914 2888 2641 2809 3206 2280 3020 2732 2929 2986 2846 3609 3632 2800 2953 3043 2821 3093 2982
0 0 0 0 0 0 0 0 0 0 0 0 0 0 0 0 0 0 0 0 0 441 468 665 910 887 865 821 738 688 574 659 944 889 837 1055 981 626 662 825 916 905 951 697 710 1208 1412 1688 1696 1464 1500 1361 1509 1685 1162 883 738 703 749 538 331 473 651 332 349 741 841 653 627 432 1166 1148 1387 1448 1818 2163 2346 2206 2805 2890 2917 2729 2842 3237 2909 2789 3041 2925 2862 2516 3125 3369 3104 3026 2711 3398 3106
0 0 0 0 0 0 0 0 0 0 0 0 0 0 0 0 0 0 0 0 0 355 632 749 736 843 866 795 778 688 677 711 869 1004 1124 1098 1080 1017 692 714 1046 1063 1031 972 841 1195 1489 1654 1862 1704 1666 1510 1337 1771 1294 929 802 753 798 711 487 516 576 419 381 409 1199 1064 993 617 909 1340 1486 1569 1518 1948 2016 2400 2480 2705 2899 2763 2722 3220 2942 2954 2900 2989 3098 3006 2796 3206 2579 3021 2712 2894 2822
0 0 0 0 0 0 0 0 0 0 0 0 0 0 0 0 0 0 0 0 0 786 899 843 961 825 916 836 781 687 657 668 882 961 1075 1181 1172 1135 889 878 1097 1125 1118 1137 930 1154 1580 1775 1951 1884 1876 1729 1378 1656 1479 1040 800 798 802 763 593 540 568 490 403 376 694 1461 1406 1134 1104 1315 1535 1697 1551 1555 1736 1897 2420 3384 2727 2719 2903 2895 3254 3128 3085 3119 3068 3194 3101 3093 2946 2816 3319 2997 3162
0 0 0 0 0 0 0 0 0 0 0 0 0 0 0 0 0 0 0 0 0 574 842 859 1011 935 792 846 829 821 781 913 1195 1319 1188 1107 1233 1290 1189 1044 1247 1244 1151 1163 1250 1288 1640 1955 2131 2024 1991 1902 1593 1641 1694 1280 893 832 854 780 692 584 530 534 414 487 323 1065 1627 1448 1414 1376 1456 1702 1709 1418 1640 1458 2634 2840 2626 2709 2946 2942 3172 3154 3162 3229 3214 2919 3230 3070 3301 3136 3315 3130 2900
0 0 0 0 0 0 0 0 0 0 0 0 0 0 0 0 0 0 0 0 0 50 668 739 1041 872 988 981 924 916 928 1038 1269 1381 1322 1185 1169 1263 1255 1150 1300 1445 1347 1193 1292 1361 1612 2084 2423 2238 2152 2047 1780 1694 1891 1512 1044 824 878 850 758 686 587 504 439 525 436 430 1143 1656 1543 1533 1367 1484 1833 1443 1500 1481 2012 2484 2593 2697 2906 3031 3098 3182 3290 3103 3369 2922 3031 3156 3150 3270 3226 3212 3273
0 0 0 0 0 0 0 0 0 0 0 0 0 0 0 0 0 0 0 0 0 0 494 690 963 1132 1061 931 975 979 915 913 1071 1190 1237 1205 1183 1142 1240 1387 1320 1583 1598 1437 1392 1443 1530 1941 2547 2582 2419 2224 1972 1787 1850 1737 1293 879 792 858 861 820 739 600 501 543 565 437 592 1315 1606 1562 1482 1131 1548 1631 1340 1584 1494 2314 2604 2690 2879 2942 3034 3135 3264 3070 3142 3045 2894 3171 3012 3163 3082 3108 3191
0 0 0 4 1 0 0 0 0 0 0 0 0 0 0 0 0 0 0 0 0 0 432 510 666 1111 920 831 937 948 851 824 961 1072 1155 1400 1486 1417 1324 1432 1431 1425 1637 1617 1540 1567 1569 1752 2332 2717 2690 2490 2259 1968 1854 1854 1609 1136 756 806 855 910 940 732 608 620 736 584 614 883 1389 1416 1550 1291 972 1356 1543 1652 1568 2003 2357 2580 2790 2850 2867 2994 3192 3050 3090 2921 2869 3016 2809 2989 2897 2722 2948
Wind_Speed
nan nan nan nan nan nan 3 1 nan 4 nan nan 9 7 6 6 5 3 7 3 2 9 8 8 2 1 4 3 10 10 9 5 3 nan nan 7 12 14 11 11 11 7 6 6 6 6 5 5 7 7 7 6 6 7 7 6 5 5 5 4 4 3 3 2 1 1 1 0 1 2 2 3 3 2 2 3 2 2 3 3 3 4 4 4 5 5 4 2 2 2 2 3 4 5 6 7 7
nan nan nan nan nan 4 2 1 nan 4 nan nan 8 7 2 5 5 3 6 3 1 4 12 5 nan 5 6 9 7 10 10 6 7 9 7 12 13 11 14 12 11 9 7 7 7 6 6 6 6 6 6 6 7 7 6 6 5 4 4 3 2 2 1 1 1 2 2 2 1 2 3 3 2 1 1 2 3 3 3 4 5 4 4 5 5 6 6 6 4 2 1 1 2 3 4 5 4
nan nan nan nan nan 4 1 1 nan 4 6 7 10 5 6 5 4 6 7 8 3 3 5 7 9 6 7 6 9 6 3 6 18 12 9 15 14 11 14 11 8 7 7 7 7 6 6 6 5 5 6 6 6 7 6 6 5 3 3 2 2 1 2 2 1 1 1 2 1 1 3 3 1 1 2 3 4 4 3 2 3 4 4 5 6 6 7 6 5 3 1 1 2 2 2 2 2
nan nan nan nan 2 1 2 2 3 5 6 8 10 6 3 4 4 7 13 15 9 11 4 6 4 4 7 14 11 19 11 6 11 18 10 13 11 14 12 11 7 5 5 6 5 5 5 5 4 4 5 6 6 6 6 5 4 3 1 1 1 1 1 0 0 1 1 1 2 2 2 1 1 3 4 5 5 6 5 5 4 5 6 7 6 6 6 5 5 4 2 2 2 1 1 0 1
4 3 3 nan 4 2 1 1 3 6 4 7 8 9 6 8 7 8 6 13 12 8 9 3 4 1 10 13 7 5 9 13 9 8 9 8 14 13 11 10 6 5 4 4 3 3 4 5 4 5 5 6 5 5 5 3 2 2 1 1 1 0 0 0 0 0 1 1 1 1 0 1 3 4 5 6 7 9 8 7 6 7 8 7 6 6 5 5 5 4 4 3 3 2 1 1 1
5 3 1 1 2 3 3 nan 3 3 4 8 10 10 9 8 6 6 3 3 12 13 8 3 5 6 7 8 6 10 14 9 9 6 12 12 17 15 13 8 6 4 3 2 3 4 3 6 6 6 6 6 5 5 4 3 3 3 2 1 1 1 0 1 1 0 0 0 0 0 1 2 3 4 5 6 8 10 13 10 9 10 9 8 8 6 7 7 6 5 3 3 3 3 2 1 1
2 2 1 5 5 4 0 0 1 3 1 4 5 12 9 8 7 5 5 8 8 8 8 3 12 13 11 9 15 11 8 14 9 10 10 15 15 15 13 7 5 5 4 2 3 3 3 7 7 7 7 6 6 6 5 4 4 3 2 2 2 2 2 2 1 1 0 0 1 1 2 3 5 6 7 8 9 10 13 13 11 12 11 10 9 9 8 7 5 4 3 3 3 3 2 1 1
5 2 1 3 3 5 1 1 2 6 3 5 4 12 14 12 10 8 5 9 6 8 4 8 6 8 14 9 12 15 15 6 13 14 15 13 13 13 10 6 5 5 3 2 3 3 6 8 7 7 6 6 7 6 6 5 5 4 3 2 3 3 3 2 2 1 1 1 1 2 3 4 5 7 8 9 10 11 15 17 16 15 13 12 11 10 9 8 6 4 4 3 2 2 2 1 0
2 2 2 5 1 3 2 1 2 1 1 3 4 16 21 19 16 13 11 9 4 8 7 8 8 14 10 16 12 13 11 15 13 14 13 14 12 9 6 7 4 3 3 2 3 3 2 7 8 7 7 7 7 7 6 6 6 5 4 3 3 3 2 2 2 1 1 1 2 2 4 6 7 8 10 11 11 12 14 17 17 17 16 13 13 12 11 9 7 5 3 2 1 1 2 1 1
1 2 3 3 1 2 1 2 4 3 3 4 8 8 18 16 16 16 10 5 4 3 9 8 6 nan 16 16 13 13 12 17 16 12 12 11 9 8 10 9 7 7 3 1 2 3 3 7 8 7 7 7 7 7 7 7 7 6 5 4 4 3 3 2 1 1 1 2 2 4 5 7 8 10 11 12 13 14 14 14 16 17 18 17 15 13 11 10 8 6 4 2 2 1 2 2 2
2 4 4 2 0 3 5 8 7 7 7 9 6 9 12 13 7 11 13 11 2 4 3 11 12 17 15 11 8 10 19 18 16 15 12 9 8 9 7 7 7 5 4 4 3 4 3 3 9 8 8 8 8 8 8 8 8 7 6 5 4 3 3 2 2 2 3 3 4 5 6 8 9 10 11 12 13 14 14 14 14 14 13 13 13 12 11 10 9 7 5 4 2 0 1 2 3
6 4 3 1 0 3 6 11 12 10 11 14 11 12 19 13 8 7 4 6 4 4 9 8 7 15 15 13 9 13 18 17 16 13 11 9 6 8 7 3 6 5 5 3 2 3 3 4 4 7 9 8 8 8 8 8 8 7 6 5 4 3 3 3 3 3 4 4 5 6 7 8 9 9 10 11 12 12 12 13 12 12 12 11 11 11 10 9 9 7 6 4 4 2 1 2 3
5 5 3 2 nan 2 10 12 11 12 13 17 16 13 11 9 7 4 5 4 1 9 5 11 15 11 14 11 10 17 20 16 13 11 11 7 6 7 5 6 7 6 3 2 2 2 3 4 4 3 5 9 8 8 7 7 7 7 6 5 4 3 4 4 3 4 4 4 5 6 7 8 9 9 9 10 10 10 11 12 12 12 11 10 9 9 9 10 9 8 6 5 4 3 2 2 2
5 5 5 2 4 2 8 8 9 12 14 12 14 14 11 10 11 5 3 3 5 5 10 15 10 13 16 13 11 14 15 18 15 12 8 7 5 6 8 6 7 5 4 3 2 3 4 4 4 4 4 4 5 5 7 7 7 7 6 5 4 3 3 3 3 4 4 5 5 6 7 8 9 9 9 9 9 9 9 10 11 11 10 10 10 11 11 11 10 9 7 6 5 3 2 2 2
7 5 5 4 6 5 6 7 8 9 12 12 14 13 14 15 17 10 10 3 2 3 10 10 11 11 10 17 12 13 17 20 17 11 9 9 9 8 8 5 4 3 3 3 3 3 4 4 4 4 5 5 5 6 6 5 7 6 5 5 4 3 2 3 3 3 4 5 5 6 7 7 7 8 9 9 9 9 10 11 10 10 11 11 11 12 11 11 10 9 7 5 5 4 3 2 2
9 7 4 3 4 4 5 5 6 9 10 10 10 11 10 16 11 14 9 13 5 2 6 9 6 3 15 8 17 19 nan nan nan nan nan 11 9 6 6 5 2 1 3 4 4 5 4 3 5 5 4 5 7 7 6 6 5 5 5 4 4 3 2 2 3 3 4 4 5 5 5 5 6 7 8 9 9 11 11 11 13 13 12 12 12 12 11 10 9 8 7 6 6 7 5 4 4
13 10 4 2 3 3 3 6 8 9 8 11 13 10 9 10 7 6 4 15 6 10 10 6 7 13 11 12 17 nan nan nan nan nan nan nan 3 2 1 2 1 3 5 5 6 5 3 4 5 5 5 5 6 6 7 7 6 4 4 4 4 3 2 3 3 4 3 2 3 3 3 7 11 11 9 10 9 10 11 11 12 12 12 11 11 11 11 9 8 8 8 9 9 9 9 8 7
12 11 4 1 3 2 1 4 7 8 9 10 14 12 12 12 9 11 1 6 2 11 5 8 3 7 13 15 nan nan nan nan nan nan nan nan 2 2 2 2 2 3 5 6 5 4 4 5 5 5 6 5 5 7 8 9 8 6 8 8 7 5 4 4 5 7 5 9 5 7 10 10 11 11 11 9 11 10 10 11 11 11 10 11 11 12 11 9 8 9 10 11 11 11 10 13 12
11 11 8 2 2 3 6 1 8 11 9 6 9 17 11 12 12 11 5 3 4 4 8 4 6 11 17 18 nan nan nan nan nan nan nan nan nan 5 3 2 3 2 4 6 6 4 5 6 6 6 5 4 4 7 8 9 9 10 10 9 9 7 8 9 11 9 11 11 13 11 11 11 11 12 10 9 10 10 9 10 11 11 11 11 11 11 10 9 7 9 10 11 12 13 15 15 14
nan 10 6 2 1 3 6 6 9 14 9 4 6 10 12 15 17 18 10 2 4 2 5 8 10 17 19 nan nan nan nan nan nan nan nan nan nan 7 6 4 3 4 3 5 5 5 5 6 7 6 3 4 6 7 7 8 9 10 10 10 10 11 11 11 12 11 11 12 12 12 11 10 10 10 9 9 8 9 9 10 11 11 11 11 11 9 9 7 7 8 9 10 13 15 13 13 13
10 nan 7 3 5 5 6 8 9 11 16 5 9 12 14 18 18 17 16 2 3 1 5 6 15 19 19 nan nan nan nan nan nan nan nan nan 10 6 6 5 4 3 3 4 5 6 6 6 7 6 4 5 6 6 7 8 9 9 10 10 11 11 11 12 12 12 11 11 11 11 12 10 10 10 11 8 8 8 8 8 7 7 8 8 8 9 9 8 6 7 10 12 14 13 13 13 12
11 nan 1 4 7 5 8 10 1 4 14 14 13 7 10 13 14 9 14 12 4 2 6 6 15 19 19 nan nan nan nan nan nan nan nan nan 11 8 5 3 3 3 3 3 4 5 6 6 6 7 7 7 5 7 8 8 8 10 11 11 11 12 11 11 12 11 12 12 11 11 12 10 9 9 10 9 9 8 7 7 7 7 8 8 7 8 9 8 7 7 9 11 12 11 12 12 12
nan nan 2 4 7 6 11 13 4 3 8 12 5 5 2 4 6 12 9 12 7 5 6 11 16 18 16 nan nan nan nan nan nan nan nan nan nan 8 7 3 4 3 3 3 3 6 6 6 7 8 8 6 5 7 9 10 10 11 12 11 12 13 12 11 12 11 12 12 12 10 10 9 8 8 9 8 7 6 6 8 8 8 7 9 9 8 9 9 8 8 7 7 10 12 9 8 14
nan nan 7 4 10 7 10 15 11 5 7 8 6 7 2 3 3 7 6 10 10 11 3 6 17 18 16 nan nan nan nan nan nan nan nan nan nan 10 8 6 3 2 2 3 3 4 6 7 8 8 8 6 7 8 9 10 10 11 12 11 13 12 11 12 11 10 10 11 9 7 6 7 7 9 10 8 7 7 9 9 8 8 8 9 10 9 7 6 7 7 6 7 10 13 11 9 14
nan nan 8 4 7 8 11 13 16 13 11 11 10 9 5 4 3 2 6 2 4 11 2 1 18 18 15 15 13 12 12 14 13 nan nan nan nan 9 7 4 3 3 3 4 4 4 5 6 8 8 8 6 7 8 9 10 10 11 12 12 12 12 12 12 10 9 8 8 7 5 5 7 9 10 11 8 8 9 9 9 9 9 9 9 10 10 8 7 8 8 7 8 10 12 11 10 13
nan nan 8 9 6 9 13 12 16 19 12 13 8 4 6 3 4 5 5 6 7 7 5 9 17 18 16 15 13 12 11 11 11 11 nan nan nan 9 8 5 4 5 4 4 4 5 4 6 8 8 7 6 7 7 9 10 10 11 12 12 12 11 11 11 10 8 7 7 7 6 7 10 10 11 12 9 10 11 9 10 11 9 9 10 10 10 10 9 9 9 9 10 11 11 11 11 14
nan nan nan 13 7 12 12 12 15 18 13 14 10 5 4 9 11 12 10 10 8 5 7 11 17 17 16 13 11 12 13 11 11 10 6 nan nan nan 7 7 6 4 5 5 4 5 4 6 6 8 7 6 7 7 8 9 10 10 11 12 12 11 11 10 10 7 6 7 7 7 8 9 10 12 11 9 9 10 10 11 11 11 11 11 11 10 11 11 11 11 10 10 10 12 13 14 15
nan nan nan nan 11 13 16 15 14 15 14 13 8 7 9 6 12 14 7 4 4 4 10 6 15 15 15 14 11 11 12 9 7 9 8 5 nan nan nan 4 4 5 5 5 4 3 4 6 6 8 7 6 7 6 7 7 9 9 10 10 11 11 9 10 7 5 6 6 6 8 8 11 11 10 9 9 9 10 12 13 11 12 13 13 13 13 13 13 12 12 13 13 12 11 13 16 17
nan nan nan nan nan 12 20 18 12 13 14 16 13 12 7 5 9 11 5 2 2 5 6 8 11 13 14 14 10 10 9 10 6 6 7 nan nan nan nan nan 3 4 3 4 3 4 5 6 6 7 6 6 6 5 6 7 7 8 8 9 11 10 10 6 4 4 5 6 7 8 9 13 10 10 10 10 11 11 13 12 13 14 15 14 14 15 14 13 12 13 16 15 12 13 14 17 18
nan nan nan nan nan nan 17 22 16 13 16 21 13 8 3 5 17 7 7 5 3 4 5 10 11 12 12 13 11 10 9 9 nan nan 5 nan nan nan nan nan 5 2 2 2 3 5 4 3 4 5 6 6 5 5 6 6 7 7 8 8 8 8 4 3 3 4 5 6 6 7 10 13 10 11 11 10 11 12 12 14 14 14 14 14 15 15 14 15 15 16 18 16 16 14 16 19 19
nan nan nan nan nan nan nan 24 20 18 16 18 12 11 4 12 14 9 7 8 5 5 4 10 13 13 12 13 nan nan nan 9 nan nan nan nan nan nan nan nan 6 2 2 2 4 4 3 2 4 4 5 5 4 4 5 5 6 5 6 5 5 5 3 3 4 4 5 7 7 8 10 10 11 13 14 12 10 10 13 17 15 14 15 16 17 16 16 17 18 20 20 18 17 16 18 21 21
nan nan nan nan nan nan nan 23 24 25 13 14 17 13 5 4 13 11 8 7 5 5 5 11 12 13 13 13 14 nan nan nan nan nan nan nan nan nan nan nan nan nan 2 3 2 4 2 3 3 2 4 5 5 3 4 3 3 3 4 4 5 5 4 4 5 6 5 6 8 10 10 11 12 14 14 12 13 14 15 17 15 15 15 16 16 15 16 19 21 22 23 20 18 19 19 22 23
nan nan nan nan nan nan nan nan 30 37 26 14 14 12 11 4 15 18 9 8 8 2 9 12 12 12 14 12 14 10 nan nan nan nan nan nan nan nan nan nan nan nan nan nan nan nan 2 5 2 4 5 4 2 2 2 2 3 4 4 4 6 6 5 6 7 7 7 6 7 9 10 11 13 13 14 15 13 13 13 12 11 12 15 15 15 16 19 22 22 23 21 21 19 18 19 20 22
nan nan nan nan nan nan nan nan nan 40 33 13 9 17 9 9 13 19 19 18 17 9 12 11 12 11 13 12 13 11 8 nan nan nan nan nan nan nan nan nan nan nan nan nan nan nan 3 3 3 4 3 1 3 2 2 3 5 3 4 6 7 8 7 9 9 7 7 7 8 9 10 11 12 13 14 16 15 14 14 12 10 11 14 14 16 18 20 22 22 19 19 20 19 18 19 20 21
nan nan nan nan nan nan nan nan nan 43 37 27 19 19 13 9 15 15 11 15 13 12 15 11 12 10 13 10 11 11 9 nan nan nan nan nan nan nan nan nan nan nan nan nan nan nan 2 3 3 4 2 3 3 2 3 3 3 3 3 5 7 9 8 8 7 6 7 7 8 9 10 11 11 12 12 12 13 15 14 12 11 12 13 14 18 19 22 18 17 17 19 20 19 20 19 21 20
nan nan nan nan nan nan nan nan nan 41 29 21 23 25 19 9 13 15 15 16 13 14 13 12 14 13 12 12 9 11 10 8 nan nan nan nan nan nan nan nan nan nan nan nan nan nan 3 4 3 2 1 2 1 1 1 2 2 3 4 5 7 8 7 5 5 5 6 7 8 9 10 10 11 10 11 11 11 13 13 13 12 14 15 17 20 20 17 17 17 17 19 18 19 20 20 19 19
nan nan nan nan nan nan nan nan 20 36 29 21 23 36 28 25 13 19 18 19 16 21 11 10 12 14 12 12 9 11 13 10 6 nan nan nan nan nan nan nan nan nan nan nan nan nan nan 4 4 3 1 2 1 1 2 2 3 3 3 5 7 9 7 5 5 5 6 7 8 8 9 10 10 10 10 10 11 11 12 12 13 14 14 15 16 18 18 18 18 18 18 17 17 16 15 12 13
nan nan nan nan nan nan nan nan 16 30 29 22 25 32 39 31 23 26 21 22 20 20 16 11 12 12 10 12 10 10 14 13 8 nan nan nan nan nan nan nan nan nan nan nan nan nan nan 5 5 3 2 2 1 2 2 3 5 5 5 7 7 8 6 6 6 7 7 7 7 8 8 9 10 9 9 9 9 9 10 12 13 12 13 13 15 16 16 17 17 17 17 17 17 16 15 14 13
nan nan nan nan nan nan nan nan 16 23 27 29 29 31 34 32 35 29 23 22 19 17 17 15 14 13 13 14 13 13 14 14 11 10 nan nan nan nan nan nan nan nan nan nan nan nan 7 6 5 4 3 2 1 1 2 4 6 5 5 7 7 7 8 6 7 7 7 7 8 7 7 8 9 9 8 9 9 10 10 11 11 12 12 12 12 12 14 14 15 15 15 16 16 15 13 14 11
nan nan nan nan nan nan nan nan nan 20 26 27 30 31 35 34 27 27 20 21 19 17 19 18 17 16 15 16 17 16 15 15 13 13 nan nan nan nan nan nan nan nan nan nan nan nan 8 7 6 6 4 3 2 1 3 5 6 5 4 5 nan 6 7 8 8 4 6 6 7 7 7 7 8 8 8 8 8 9 9 9 10 11 11 11 11 12 13 14 14 15 15 15 13 12 13 14 13
nan nan nan nan nan nan nan nan nan 13 19 33 32 32 36 32 26 24 24 21 19 20 19 20 18 18 18 21 20 18 18 14 12 14 13 16 nan nan nan nan nan nan nan nan nan nan nan 9 8 8 5 4 2 1 3 5 5 5 3 3 nan nan 7 7 8 4 5 5 6 6 7 6 6 7 8 7 7 7 7 7 9 10 9 10 10 11 12 12 12 13 12 11 11 12 13 12 13
nan nan nan nan nan nan nan nan nan nan nan 26 39 33 30 31 33 34 28 22 19 20 20 20 19 19 19 18 16 17 17 17 12 11 13 16 14 nan nan nan nan nan nan nan nan nan nan 11 10 9 7 4 1 2 2 3 4 3 3 3 3 nan nan nan 8 4 4 4 6 6 5 6 6 6 7 7 6 6 6 7 7 8 8 9 9 10 9 8 9 10 11 10 11 12 11 9 11
nan nan nan nan nan nan nan nan nan nan nan 15 23 32 27 31 34 33 29 23 20 16 16 21 22 19 17 14 14 13 14 14 13 11 8 16 15 15 nan nan nan nan nan nan nan nan nan 11 10 9 7 5 1 2 2 1 4 4 3 3 nan nan nan nan nan nan 3 4 4 5 5 5 5 4 6 5 4 5 5 5 6 6 6 7 8 7 6 7 8 7 8 8 10 9 8 7 9
nan nan nan nan nan nan nan nan nan nan nan nan nan 16 31 29 25 30 31 26 21 14 13 19 21 19 16 14 11 11 13 12 12 9 5 9 17 18 15 nan nan nan nan nan nan nan nan 11 11 9 7 5 2 2 4 2 3 4 4 6 nan 4 nan 6 4 nan 2 3 2 4 4 4 6 4 4 4 4 4 4 5 5 5 5 7 7 7 8 7 6 6 6 7 6 6 6 6 8
nan nan nan nan nan nan nan nan nan nan nan nan nan nan nan 24 20 24 30 27 19 11 13 15 18 19 18 16 13 13 13 8 8 9 8 4 16 19 17 14 nan 16 nan nan nan nan nan 13 11 10 7 4 3 1 4 4 4 3 4 5 5 6 4 5 5 5 4 nan 2 3 4 4 5 5 4 4 4 5 6 6 6 5 5 6 6 6 7 6 6 5 4 4 4 5 5 6 4
nan nan nan nan nan nan nan nan nan nan nan nan nan nan nan nan 23 19 23 25 18 9 14 16 16 17 17 17 15 14 14 10 7 8 9 4 12 18 18 18 16 16 16 nan 15 15 14 14 10 9 7 4 3 1 3 4 3 3 4 5 4 5 6 6 5 5 4 4 nan 2 3 3 4 4 2 3 3 5 5 6 6 7 7 7 7 7 5 5 5 4 4 3 2 3 4 3 5
nan nan nan nan nan nan nan nan nan nan nan nan nan nan nan nan 21 23 21 18 16 13 13 14 15 15 15 16 15 12 12 11 9 8 5 6 13 17 19 17 15 17 18 15 15 14 13 12 10 8 7 5 4 2 3 3 3 3 2 4 4 4 6 4 5 5 6 5 3 1 1 2 2 3 1 2 3 4 4 4 4 5 5 6 6 5 5 5 6 5 5 4 2 3 4 3 3
nan nan nan nan nan nan nan nan nan nan nan nan nan nan nan nan nan 18 19 21 21 20 19 17 17 17 16 14 12 12 11 11 11 9 5 8 13 16 19 17 14 16 18 15 14 13 13 11 10 9 8 5 4 4 3 3 3 2 2 2 2 3 4 5 3 3 4 3 3 1 2 1 0 1 0 1 2 4 5 5 4 4 4 4 6 6 7 8 8 6 6 5 4 3 3 3 3
nan nan nan nan nan nan nan nan nan nan nan nan nan nan nan nan nan nan 12 14 17 17 16 16 17 17 17 16 15 14 13 12 11 10 9 10 12 14 16 15 14 13 15 14 14 13 14 12 10 10 7 6 5 5 5 4 4 3 2 0 3 3 4 5 3 3 4 3 3 3 4 4 3 2 2 2 2 4 5 6 5 5 6 5 5 5 4 5 7 6 6 6 5 4 4 4 4
nan nan nan nan nan nan nan nan nan nan nan nan nan nan nan nan nan nan nan nan 22 21 15 15 17 17 17 17 16 16 15 12 11 9 11 12 12 12 13 13 13 11 13 14 14 14 15 13 11 9 8 7 6 5 5 5 5 4 3 1 2 3 4 5 5 3 3 4 4 3 4 5 5 6 5 5 4 4 5 6 5 5 6 5 4 5 5 3 6 7 7 6 6 5 4 4 6
nan nan nan nan nan nan nan nan nan nan nan nan nan nan nan nan nan nan nan nan 21 27 19 16 19 17 15 17 18 18 15 12 12 11 12 13 12 12 11 12 12 10 12 13 14 15 15 15 12 9 9 8 7 5 5 6 6 6 4 2 1 3 4 6 6 5 4 4 4 4 4 5 5 5 6 5 5 5 6 6 7 5 5 5 4 5 5 4 4 5 6 7 6 6 6 6 7
nan nan nan nan nan nan nan nan nan nan nan nan nan nan nan nan nan nan nan nan nan 31 26 20 17 13 12 15 17 17 16 12 13 14 14 14 13 11 10 10 10 9 10 11 13 14 15 16 14 11 10 9 7 6 5 7 8 7 6 4 2 2 5 6 7 7 6 6 5 5 5 5 4 5 5 5 5 6 6 7 7 6 5 4 4 4 3 3 3 4 4 5 6 5 6 6 8
nan nan nan nan nan nan nan nan nan nan nan nan nan nan nan nan nan nan nan nan nan 39 36 26 22 18 13 13 15 16 15 13 13 14 15 17 14 10 9 9 9 10 9 10 11 12 13 16 16 13 11 11 9 7 6 7 8 9 7 6 4 3 3 5 6 7 7 7 7 6 5 5 5 6 5 5 5 5 6 7 6 6 5 3 3 3 4 4 5 6 7 6 7 8 7 8 8
nan nan nan nan nan nan nan nan nan nan nan nan nan nan nan nan nan nan nan nan nan 41 42 36 32 26 17 13 15 18 16 13 13 13 15 17 16 12 8 7 9 11 11 9 10 12 14 17 17 16 14 12 10 10 8 8 8 8 8 7 5 4 4 5 7 8 9 9 8 7 6 6 6 6 6 6 6 5 5 7 6 5 4 3 2 3 5 6 7 8 8 9 11 10 9 10 9
nan nan nan nan nan nan nan nan nan nan nan nan nan nan nan nan nan nan nan nan nan 35 40 40 39 34 24 15 16 18 20 19 16 15 16 16 16 13 10 8 8 10 10 9 10 13 16 18 19 17 15 14 13 14 12 11 9 10 10 8 6 5 4 5 7 9 9 9 9 9 8 7 7 8 8 8 7 6 6 5 5 4 2 2 3 5 7 7 7 8 9 10 11 11 10 11 11
nan nan nan nan nan nan nan nan nan nan nan nan nan nan nan nan nan nan nan nan nan nan 37 39 37 36 32 23 18 21 25 23 19 16 15 14 14 14 11 8 8 10 10 9 10 12 14 18 20 18 18 18 17 14 12 10 9 10 10 9 6 5 4 5 7 9 9 9 10 10 9 9 9 9 10 10 9 8 6 5 3 3 1 2 5 7 7 7 7 8 9 9 11 10 10 10 11
nan nan nan nan nan nan nan nan nan nan nan nan nan nan nan nan nan nan nan nan nan nan 30 34 34 35 35 32 30 28 25 18 14 13 13 13 14 14 11 10 9 9 9 9 9 10 12 17 19 19 19 19 17 14 12 10 10 9 10 9 7 6 5 5 6 7 8 9 9 9 9 9 10 10 11 12 11 10 8 6 4 1 1 4 5 6 6 6 7 8 8 9 10 10 11 10 10
nan nan nan nan nan nan nan nan nan nan nan nan nan nan nan nan nan nan nan nan nan nan 29 28 33 34 33 33 33 30 20 14 13 14 14 13 14 14 12 11 12 10 7 8 8 9 11 13 17 19 19 19 18 16 13 12 11 10 9 9 9 8 6 6 6 7 8 9 9 9 9 9 10 10 11 12 12 11 9 7 4 1 2 4 5 5 5 5 6 7 9 8 9 11 11 12 10
Wind_Direction
nan nan nan nan nan nan 72 49 nan 222 nan nan 184 199 171 196 180 184 135 42 45 92 63 76 275 318 130 353 289 260 219 337 3 nan nan 349 336 346 1 338 345 352 12 43 58 57 55 35 20 354 351 336 331 325 322 320 320 321 322 331 331 327 322 321 323 6 19 103 116 111 88 93 111 111 84 55 46 43 52 48 28 9 356 346 343 339 330 317 328 306 278 293 290 285 280 273 264
nan nan nan nan nan 29 71 180 nan 181 nan nan 163 206 172 223 170 147 125 96 116 64 48 10 nan 261 64 301 300 263 204 193 280 300 288 317 330 348 347 344 347 348 11 28 46 58 61 56 22 4 350 339 335 332 327 327 332 334 336 332 317 295 276 226 202 185 188 155 125 78 90 155 166 131 56 21 13 18 26 28 17 7 2 354 347 339 340 352 353 343 358 304 275 282 291 290 283
nan nan nan nan nan 39 352 191 nan 186 182 167 188 181 220 226 124 134 144 149 109 5 220 203 305 3 333 304 248 260 287 280 283 279 305 327 330 350 338 342 351 348 360 33 45 60 77 67 29 13 352 346 339 335 334 339 339 336 338 314 279 249 204 204 193 160 91 28 51 134 177 171 177 9 359 352 352 352 347 313 6 352 355 4 356 343 341 343 346 345 336 219 238 271 297 320 351
nan nan nan nan 340 40 165 243 154 180 187 185 180 190 176 171 145 151 187 124 165 210 183 223 147 151 271 259 277 277 289 278 291 314 323 351 344 336 334 333 340 356 27 41 55 71 90 42 33 21 360 348 342 341 339 336 336 333 325 287 254 203 200 163 140 152 155 161 174 186 184 193 311 339 343 346 337 315 316 323 333 347 349 2 357 346 344 343 344 354 328 284 262 255 271 278 127
89 143 120 nan 301 6 278 224 199 230 213 206 188 176 165 174 186 196 150 122 202 208 150 345 266 13 295 299 319 288 303 292 285 297 323 342 333 327 325 323 339 9 23 39 57 80 80 360 17 11 357 348 343 340 339 332 335 334 309 288 281 181 309 247 171 170 163 173 205 168 157 312 329 335 332 327 322 314 310 320 339 337 346 347 348 347 347 351 351 346 326 314 305 318 314 194 175
79 89 79 347 311 320 269 nan 276 287 253 226 185 172 172 179 178 152 83 144 218 142 112 221 297 319 264 245 262 282 313 306 321 308 332 340 333 321 318 329 353 358 6 63 69 98 80 351 357 357 1 352 345 343 345 351 350 352 338 333 332 340 6 307 292 345 43 331 18 224 243 286 311 319 320 319 320 317 318 330 333 334 334 340 343 3 7 356 355 350 320 306 310 314 321 315 169
67 358 163 229 287 307 234 318 330 317 25 327 180 156 152 160 146 152 212 217 175 125 141 291 280 273 253 272 268 283 271 295 313 338 347 339 326 319 330 337 330 328 334 53 89 87 24 354 354 3 3 355 351 349 350 357 4 358 345 344 13 7 347 332 343 351 4 12 302 292 284 296 303 312 319 323 322 321 316 324 330 330 333 343 350 355 358 355 356 356 343 324 322 318 315 328 158
93 137 167 263 313 317 333 18 50 297 253 320 181 149 146 142 148 142 193 205 152 157 171 167 237 266 278 306 285 285 300 293 307 332 333 332 326 331 326 311 318 327 335 44 90 91 356 349 358 1 359 352 351 348 350 358 7 0 352 360 10 8 351 331 314 288 356 342 313 302 310 316 316 319 324 323 327 327 325 325 334 335 335 344 348 354 356 353 358 1 360 344 311 283 282 298 38
63 249 216 273 273 293 242 84 125 291 214 130 183 150 150 151 161 173 193 182 198 182 132 300 293 279 287 282 287 301 283 301 314 324 326 327 340 326 295 301 315 327 327 13 92 91 55 355 353 353 349 354 351 349 354 358 3 355 350 2 1 352 332 329 315 322 346 349 322 322 327 326 330 327 328 332 332 332 329 325 327 330 333 349 353 355 351 350 357 7 3 349 325 256 240 222 167
136 165 239 298 240 132 131 157 167 154 154 149 186 140 125 152 175 160 190 194 144 308 93 302 289 nan 291 276 287 292 304 312 315 321 332 340 330 295 303 316 316 324 323 17 76 87 82 350 345 349 352 354 355 352 356 354 355 354 357 357 347 345 338 335 333 313 337 337 340 336 335 334 333 332 333 336 337 335 331 328 325 331 339 347 349 348 349 352 358 5 4 342 331 280 229 199 172
199 222 265 223 299 165 142 148 160 138 144 136 168 125 137 166 152 178 172 150 18 342 289 282 288 293 291 283 263 295 308 317 322 325 341 344 318 312 316 327 320 320 337 358 50 81 66 53 346 348 350 356 359 358 356 355 351 353 359 353 349 337 339 336 331 344 344 340 338 342 339 332 335 336 336 337 338 336 334 332 335 335 336 341 344 348 354 360 4 10 8 348 337 319 196 185 173
174 230 273 273 221 216 147 144 151 142 142 144 135 166 147 155 171 182 154 85 7 321 311 299 269 297 279 285 299 310 315 322 327 337 340 339 326 311 308 329 327 333 343 2 42 90 95 82 71 353 347 356 3 2 0 352 347 351 355 354 351 346 341 344 345 344 338 336 338 335 335 333 335 338 341 341 342 342 344 342 345 345 346 349 354 357 3 11 19 21 12 353 343 2 125 174 179
202 255 303 328 nan 250 135 135 163 152 149 145 128 161 145 154 133 174 170 109 348 300 261 267 292 294 290 295 320 320 326 328 329 332 336 350 333 319 327 339 340 338 353 33 41 83 89 107 95 81 20 353 3 6 358 349 345 346 351 357 358 355 351 345 347 340 338 337 338 337 335 339 338 342 347 350 352 356 358 358 358 360 360 3 6 10 15 24 30 32 25 7 359 18 79 138 176
201 277 294 8 329 88 121 124 150 155 157 133 153 165 165 151 125 157 241 109 245 207 286 292 285 283 283 302 331 335 330 332 331 336 351 327 313 306 335 350 334 334 3 41 79 88 106 106 98 85 60 73 75 27 359 353 350 347 353 358 359 355 345 345 347 337 341 337 338 340 343 344 345 351 359 4 7 6 8 15 13 10 11 14 17 20 22 27 35 38 33 20 17 28 83 132 161
214 248 279 346 48 92 134 136 150 170 144 160 164 169 166 143 145 152 151 270 224 111 275 275 293 295 332 329 339 344 336 332 334 344 324 324 331 345 334 343 327 355 51 58 69 82 94 104 93 94 94 99 92 95 94 44 355 353 355 3 1 345 348 345 342 350 346 346 340 345 347 350 1 8 15 18 17 15 17 16 20 21 18 18 20 21 22 26 34 40 37 34 42 50 71 106 126
228 236 282 336 77 121 145 144 176 196 161 190 160 180 163 140 139 170 145 140 274 1 262 274 325 257 326 328 331 336 nan nan nan nan nan 332 347 329 316 329 1 41 85 75 80 90 95 100 99 100 104 98 96 91 86 83 32 3 8 6 2 360 357 356 352 358 353 347 345 347 355 38 39 52 21 45 27 23 23 31 15 19 20 18 17 19 21 26 33 41 44 48 56 63 73 82 79
223 230 254 329 125 125 153 172 180 197 211 172 154 176 150 144 158 169 175 109 301 258 203 255 182 298 320 324 329 nan nan nan nan nan nan nan 353 336 8 75 95 105 98 87 95 92 90 79 83 103 94 88 87 90 95 95 73 27 51 15 357 2 19 11 19 1 4 31 51 26 57 101 98 86 77 75 44 57 35 22 17 15 17 15 12 13 16 24 33 44 56 59 61 66 72 69 66
222 222 235 357 43 67 112 162 208 232 236 170 155 151 152 147 136 143 3 85 224 278 292 231 158 325 316 320 nan nan nan nan nan nan nan nan 353 9 44 60 67 89 98 95 94 90 85 86 76 78 88 86 96 102 102 103 101 96 111 112 112 96 76 70 101 113 99 108 72 102 108 98 99 93 84 67 82 60 48 19 15 10 10 8 6 6 9 19 32 47 57 63 67 66 63 79 82
223 222 225 117 349 359 321 152 242 233 236 243 173 143 149 129 139 145 149 322 302 323 284 318 10 323 317 325 nan nan nan nan nan nan nan nan nan 342 4 54 69 76 98 110 101 74 88 87 78 72 91 92 96 103 102 106 108 113 113 113 110 99 97 114 119 116 116 108 112 114 110 108 105 100 88 72 72 39 36 13 6 4 3 2 2 3 8 14 33 43 48 64 76 81 83 84 86
nan 223 210 110 29 265 251 253 245 251 287 200 200 144 135 168 167 151 133 357 331 347 308 355 346 324 324 nan nan nan nan nan nan nan nan nan nan 342 352 8 49 78 83 97 95 98 84 84 76 87 83 79 102 109 106 105 108 108 110 111 110 110 118 122 125 119 110 114 114 112 114 103 99 98 63 27 39 65 41 10 359 360 1 2 359 17 9 19 30 37 39 59 77 87 85 89 94
234 nan 211 204 305 251 264 255 243 229 276 212 215 187 156 170 166 157 130 114 84 118 355 2 327 324 327 nan nan nan nan nan nan nan nan nan 335 344 5 3 36 72 98 110 110 94 82 80 88 92 79 88 108 108 100 103 105 109 110 111 111 113 116 116 117 116 111 111 107 102 97 92 85 80 81 76 71 61 66 60 56 52 52 45 22 46 52 67 83 66 59 64 73 76 81 88 94
239 nan 44 233 274 266 302 302 248 193 249 241 238 213 167 171 141 126 137 118 95 56 317 19 323 320 325 nan nan nan nan nan nan nan nan nan 332 341 359 4 7 55 90 101 86 86 84 81 77 85 81 100 102 100 104 99 101 108 110 109 110 110 109 107 107 105 101 97 94 88 91 86 79 82 83 74 63 63 63 65 67 73 68 73 74 56 54 76 72 51 52 71 77 80 77 91 92
nan nan 168 255 297 274 318 319 313 356 263 248 296 291 124 41 133 131 124 119 149 183 326 349 322 318 319 nan nan nan nan nan nan nan nan nan nan 337 349 7 19 47 85 94 70 87 87 80 70 72 88 102 93 102 103 101 104 104 106 105 102 103 105 102 98 100 98 93 94 92 95 116 96 83 82 88 74 65 60 63 70 75 67 69 73 54 55 69 73 51 58 72 89 91 95 107 104
nan nan 254 259 303 334 320 320 314 297 280 271 248 243 144 229 145 110 140 91 145 134 183 301 314 313 319 nan nan nan nan nan nan nan nan nan nan 333 345 353 33 76 77 75 69 75 83 64 67 75 94 93 99 100 100 103 105 101 102 96 96 96 95 92 88 91 88 88 93 96 117 106 99 97 98 81 74 70 64 65 67 70 68 70 74 67 55 78 87 78 66 80 86 94 91 86 91
nan nan 274 286 311 281 300 301 295 286 290 281 250 237 167 205 139 141 119 67 347 97 282 139 314 319 325 328 331 327 335 340 337 nan nan nan nan 324 337 352 1 47 25 29 70 73 64 64 69 76 89 88 96 95 99 106 106 104 105 101 97 90 87 87 84 81 83 90 85 91 67 74 87 83 82 73 69 68 70 69 61 60 68 63 67 72 74 71 79 84 73 70 81 88 87 84 90
nan nan 248 248 268 275 293 300 295 288 278 304 303 248 192 117 131 71 122 57 33 10 7 341 318 326 330 335 325 324 336 347 336 340 nan nan nan 324 332 337 348 35 18 8 47 82 70 56 65 71 83 78 84 90 102 104 100 96 96 101 96 91 84 81 79 74 73 76 85 94 66 59 69 69 70 67 57 62 62 68 69 60 62 71 63 59 73 78 80 86 81 72 77 85 91 81 84
nan nan nan 267 289 284 294 301 308 290 293 311 318 285 229 164 131 125 106 95 22 330 269 312 322 327 327 334 321 322 333 346 344 342 348 nan nan nan 333 329 357 14 14 10 35 75 71 59 67 74 90 82 80 88 97 98 100 93 94 99 97 89 82 74 68 58 58 66 80 82 78 76 67 69 72 60 59 66 62 61 70 63 61 73 72 67 74 76 76 82 81 83 81 89 93 96 90
nan nan nan nan 288 289 289 279 279 278 279 309 298 271 249 200 140 109 94 73 7 289 294 1 322 324 326 338 319 314 327 339 340 339 342 14 nan nan nan 326 350 349 25 14 42 69 38 56 54 72 92 83 91 89 101 92 90 92 87 94 89 89 76 72 65 41 47 71 74 70 86 79 71 69 68 63 59 61 63 65 69 62 61 67 68 67 69 75 78 85 90 86 86 92 96 96 95
nan nan nan nan nan 291 293 288 290 285 267 301 284 251 224 160 104 60 6 324 325 292 327 344 322 319 326 335 317 313 318 326 335 329 340 nan nan nan nan nan 327 349 72 19 13 8 22 46 49 68 89 88 103 89 98 90 93 91 86 79 79 76 64 72 80 27 35 54 77 82 84 85 79 71 70 62 60 62 65 69 67 65 62 65 68 65 70 74 78 81 82 82 86 93 98 99 101
nan nan nan nan nan nan 305 287 292 278 279 301 305 267 343 51 90 360 326 311 323 282 353 342 326 321 318 325 316 313 309 319 nan nan 334 nan nan nan nan nan 310 354 87 85 5 356 44 72 75 77 80 81 102 93 100 93 87 88 82 77 71 61 82 88 68 36 41 57 61 73 78 79 86 88 75 67 63 61 68 71 66 64 64 65 66 67 69 69 74 73 73 76 77 87 91 95 95
nan nan nan nan nan nan nan 296 308 274 289 302 276 276 320 354 19 333 301 319 319 322 359 318 324 315 319 315 nan nan nan 311 nan nan nan nan nan nan nan nan 302 309 149 26 29 352 31 22 63 81 71 86 93 84 75 84 88 78 69 79 75 88 108 83 76 63 52 81 86 82 87 89 86 81 75 67 66 72 71 75 74 62 60 63 60 60 63 63 63 67 69 70 83 87 88 91 88
nan nan nan nan nan nan nan 297 306 281 276 297 271 242 292 5 314 305 274 304 312 305 320 313 310 312 317 313 313 nan nan nan nan nan nan nan nan nan nan nan nan nan 341 13 71 351 4 339 50 35 46 65 89 63 87 92 79 85 100 80 77 110 92 77 72 75 73 66 88 91 89 91 86 83 79 71 58 53 54 60 61 64 63 65 68 73 68 61 60 63 66 64 70 78 80 86 85
nan nan nan nan nan nan nan nan 313 299 295 305 290 259 252 318 312 304 314 276 252 335 331 315 308 310 314 310 309 321 nan nan nan nan nan nan nan nan nan nan nan nan nan nan nan nan 262 331 2 342 18 50 44 32 107 109 65 92 75 70 69 88 78 64 59 61 70 80 88 94 89 86 90 92 92 87 80 73 75 73 67 69 74 73 80 72 70 70 66 64 62 62 65 73 75 83 83
nan nan nan nan nan nan nan nan nan 301 294 303 323 268 289 293 310 312 319 317 333 341 310 304 293 293 297 301 310 325 304 nan nan nan nan nan nan nan nan nan nan nan nan nan nan nan 296 315 325 346 20 8 347 32 60 40 50 63 55 60 73 82 63 59 63 56 60 72 80 81 81 80 80 86 90 95 102 98 95 92 82 73 77 80 78 80 76 73 70 67 67 70 68 70 70 74 79
nan nan nan nan nan nan nan nan nan 302 311 324 318 269 294 278 296 297 292 304 311 291 294 302 289 282 290 299 307 322 313 nan nan nan nan nan nan nan nan nan nan nan nan nan nan nan 261 260 293 347 16 330 339 26 36 57 51 47 51 59 69 84 68 63 70 57 64 68 69 68 70 68 65 65 71 82 91 96 101 103 99 102 97 93 89 85 82 79 76 72 70 72 73 69 66 68 72
nan nan nan nan nan nan nan nan nan 292 295 300 313 300 302 290 292 288 294 295 287 275 275 286 290 273 276 293 306 310 313 319 nan nan nan nan nan nan nan nan nan nan nan nan nan nan 267 252 276 306 343 335 252 23 42 56 72 53 36 66 75 91 79 103 79 67 70 70 66 66 71 72 68 59 62 67 69 75 83 87 73 62 71 68 73 83 85 84 81 79 77 76 75 74 69 71 74
nan nan nan nan nan nan nan nan 267 284 287 310 316 305 310 314 317 304 297 289 287 280 287 287 289 290 278 291 297 304 309 309 269 nan nan nan nan nan nan nan nan nan nan nan nan nan nan 257 285 318 250 316 253 355 106 72 92 97 96 72 75 89 80 92 89 79 75 76 67 72 71 79 75 62 62 62 58 64 70 74 75 73 69 75 80 83 81 82 83 82 86 87 88 92 88 80 79
nan nan nan nan nan nan nan nan 277 287 295 298 300 304 311 317 325 302 289 290 292 293 296 287 283 273 261 278 292 290 297 286 292 nan nan nan nan nan nan nan nan nan nan nan nan nan nan 273 293 283 231 290 299 358 72 80 102 85 83 74 89 93 90 80 83 82 71 71 71 71 73 78 79 74 67 67 62 62 64 68 71 71 76 69 75 77 79 80 82 86 89 89 90 85 87 86 83
nan nan nan nan nan nan nan nan 253 277 281 291 301 305 299 302 300 297 297 294 285 285 287 292 274 264 253 260 271 270 288 295 307 302 nan nan nan nan nan nan nan nan nan nan nan nan 257 274 277 265 253 287 288 339 75 67 101 89 88 94 86 109 110 90 74 76 69 62 62 64 64 70 74 79 65 65 61 60 57 61 64 65 67 69 75 79 85 79 79 78 80 81 89 88 85 85 87
nan nan nan nan nan nan nan nan nan 281 281 290 303 299 290 293 292 295 295 290 277 274 276 278 268 270 264 265 257 256 285 292 308 310 nan nan nan nan nan nan nan nan nan nan nan nan 245 259 263 265 268 271 270 28 67 72 75 80 83 71 nan 109 102 102 99 80 57 56 61 66 60 58 65 72 62 57 60 54 52 57 62 66 66 71 65 66 73 74 76 75 76 81 87 92 90 87 85
nan nan nan nan nan nan nan nan nan 237 291 293 287 277 281 293 296 299 294 286 283 275 278 274 269 258 258 252 252 253 259 272 298 311 300 287 nan nan nan nan nan nan nan nan nan nan nan 264 267 270 265 276 266 42 66 77 109 109 107 101 nan nan 125 110 106 108 67 60 73 81 59 56 59 69 67 59 53 48 54 57 61 66 63 65 64 60 67 66 68 76 81 83 85 84 79 88 91
nan nan nan nan nan nan nan nan nan nan nan 280 285 260 284 292 303 306 295 283 283 280 279 279 272 267 262 267 273 255 245 246 258 302 302 297 282 nan nan nan nan nan nan nan nan nan nan 247 258 261 255 259 299 80 85 75 128 97 136 171 151 nan nan nan 87 84 81 78 73 85 70 60 54 68 71 61 40 50 48 47 57 62 61 56 58 58 62 75 67 71 77 75 80 85 80 81 89
nan nan nan nan nan nan nan nan nan nan nan 244 280 282 271 278 293 298 298 294 292 282 284 280 271 268 276 279 273 271 258 247 249 236 239 306 292 267 nan nan nan nan nan nan nan nan nan 248 253 259 256 251 275 115 149 136 162 147 144 149 nan nan nan nan nan nan 67 91 97 86 83 80 73 62 63 75 28 29 33 40 45 55 55 53 61 63 52 59 69 72 77 87 85 93 99 78 68
nan nan nan nan nan nan nan nan nan nan nan nan nan 248 261 271 280 294 299 293 293 295 283 283 277 277 282 282 284 274 265 248 250 266 248 303 306 288 277 nan nan nan nan nan nan nan nan 246 253 256 244 250 211 130 168 194 189 172 163 165 nan 138 nan 114 130 nan 113 110 99 92 92 96 74 83 46 69 29 10 15 25 33 39 46 55 55 49 41 42 45 61 63 77 94 102 95 62 61
nan nan nan nan nan nan nan nan nan nan nan nan nan nan nan 265 275 288 289 276 272 291 286 286 288 288 286 287 287 294 289 259 237 269 296 306 313 298 278 261 nan 243 nan nan nan nan nan 235 249 245 250 239 215 95 188 198 207 179 177 177 167 154 145 145 160 168 133 nan 168 106 104 94 73 84 44 32 23 3 2 5 11 15 28 46 48 41 42 26 19 25 52 90 92 98 93 75 55
nan nan nan nan nan nan nan nan nan nan nan nan nan nan nan nan 279 275 287 282 280 309 308 302 296 292 287 284 285 294 290 254 232 277 296 324 306 295 282 265 253 242 236 nan 230 227 233 236 246 250 251 231 214 238 205 215 222 211 187 187 181 169 173 171 173 169 156 131 nan 57 109 96 80 84 59 19 357 360 353 353 356 2 11 22 31 28 22 9 18 18 20 35 39 84 86 62 56
nan nan nan nan nan nan nan nan nan nan nan nan nan nan nan nan 257 285 283 294 322 329 306 295 291 286 285 284 284 287 280 267 267 286 291 315 299 288 279 274 265 247 238 241 235 235 237 243 253 258 250 232 223 252 237 238 239 228 199 191 189 192 184 195 183 166 171 174 141 141 51 87 93 76 98 18 340 337 339 343 349 356 2 8 28 17 20 11 14 7 350 348 11 27 71 70 69
nan nan nan nan nan nan nan nan nan nan nan nan nan nan nan nan nan 280 312 338 341 326 326 318 307 305 294 283 278 279 273 256 266 276 267 287 286 289 288 284 274 257 249 253 243 242 243 242 253 262 249 243 233 247 261 247 240 254 220 194 200 197 210 207 202 179 167 176 175 226 290 282 46 69 81 299 337 317 324 329 335 339 5 1 15 21 4 18 7 357 343 349 13 33 52 59 53
nan nan nan nan nan nan nan nan nan nan nan nan nan nan nan nan nan nan 303 322 328 340 341 340 332 320 302 292 289 277 268 260 263 265 260 282 281 293 300 295 283 266 254 262 257 254 250 247 260 269 267 259 248 262 284 277 265 271 275 199 188 207 223 230 226 197 184 192 207 235 265 309 306 327 353 331 338 332 314 324 334 335 352 355 1 12 24 357 3 355 350 356 1 15 37 43 58
nan nan nan nan nan nan nan nan nan nan nan nan nan nan nan nan nan nan nan nan 322 335 345 344 332 324 308 289 279 275 268 262 257 261 264 277 279 286 302 300 296 279 265 264 257 254 248 248 257 270 276 266 252 267 281 287 292 283 284 265 183 210 231 241 234 237 209 205 226 246 285 301 320 338 337 341 343 336 323 324 334 329 337 344 348 7 32 5 344 354 355 6 11 25 36 43 61
nan nan nan nan nan nan nan nan nan nan nan nan nan nan nan nan nan nan nan nan 292 311 318 324 333 330 306 286 277 272 267 260 251 270 275 272 278 285 292 300 299 291 274 263 251 250 251 252 254 264 262 258 255 274 273 295 282 283 279 278 218 203 233 239 243 242 253 246 236 255 267 285 303 322 331 322 335 334 333 326 334 325 318 344 342 357 16 359 350 349 11 13 18 27 40 48 65
nan nan nan nan nan nan nan nan nan nan nan nan nan nan nan nan nan nan nan nan nan 299 304 299 311 310 288 269 273 266 266 264 261 273 280 279 276 268 273 291 299 300 292 269 260 251 253 256 261 265 267 268 263 262 265 284 282 278 285 287 301 241 227 239 238 238 253 262 266 269 273 287 304 306 297 301 328 335 329 334 330 332 323 332 339 352 2 13 31 28 38 21 22 48 43 52 61
nan nan nan nan nan nan nan nan nan nan nan nan nan nan nan nan nan nan nan nan nan 274 281 284 293 303 302 286 280 279 273 269 270 271 267 276 278 272 265 287 303 320 318 296 273 259 262 258 258 260 255 250 256 258 263 262 270 278 289 297 288 259 263 268 265 264 268 267 269 273 278 288 286 288 296 293 314 324 331 336 331 325 334 328 349 10 36 64 68 64 59 64 58 61 57 62 73
nan nan nan nan nan nan nan nan nan nan nan nan nan nan nan nan nan nan nan nan nan 260 273 280 278 288 304 303 298 292 286 290 285 270 266 270 276 290 281 277 317 330 331 307 279 254 250 252 256 258 252 254 249 247 240 238 257 271 278 293 296 296 279 273 267 273 265 266 268 271 274 273 291 298 305 303 305 318 328 339 332 330 332 345 21 67 82 84 80 75 71 71 72 74 68 70 71
nan nan nan nan nan nan nan nan nan nan nan nan nan nan nan nan nan nan nan nan nan 260 275 273 275 279 291 305 325 317 303 287 277 271 266 263 265 279 281 279 306 322 320 297 262 249 242 247 253 256 258 253 249 236 229 223 234 242 255 279 293 286 269 263 264 271 272 277 285 286 292 298 292 290 301 306 311 330 329 339 332 326 331 16 98 104 102 97 85 77 76 71 76 77 77 72 73
nan nan nan nan nan nan nan nan nan nan nan nan nan nan nan nan nan nan nan nan nan nan 284 275 276 281 278 282 297 309 304 289 280 284 276 270 270 273 282 285 293 303 305 298 273 251 255 253 255 254 252 248 244 240 235 230 231 233 245 257 266 274 282 276 274 280 286 293 292 298 304 303 311 296 305 313 318 334 335 337 335 323 351 128 119 117 105 97 89 77 72 68 68 70 73 74 74
nan nan nan nan nan nan nan nan nan nan nan nan nan nan nan nan nan nan nan nan nan nan 287 277 278 276 276 281 281 293 307 296 289 295 284 278 274 269 267 268 276 277 286 295 285 274 263 256 260 261 262 261 258 253 246 234 231 237 250 267 277 275 289 273 277 286 291 295 293 298 305 308 300 309 302 310 321 330 336 338 331 303 162 141 131 119 111 96 91 78 71 62 60 56 60 68 67
nan nan nan nan nan nan nan nan nan nan nan nan nan nan nan nan nan nan nan nan nan nan 296 288 285 283 282 277 281 284 283 285 303 318 308 289 274 267 262 260 251 257 278 299 298 278 269 266 264 266 265 263 264 258 248 241 233 234 249 264 277 275 277 272 289 291 297 296 298 299 303 298 306 310 307 309 318 321 328 331 321 294 185 153 139 131 112 92 77 68 64 64 56 49 50 54 56